User: anonymous   Login
Location: Unspecified
(0.0000°N, 0.0000°E)
Time: 05:08:15
(UTC+00:00)
Language:

SBIRS GEO 1 (USA 230) - Orbit

View from above orbital plane
View from above orbital plane
View from above satellite
View from above satellite

Ground track
Ground track

The orbit data is extracted from the following two-line orbital elements,

1 37481U 11019A   17111.05112048 0.00000000  00000-0  00000-0 0    00
2 37481   3.6823 321.8106 0004992 321.6006  38.3668  1.00270000    04
Epoch (UTC): 21 April 2017 01:13:36
Eccentricity: 0.0004992
inclination: 3.6823°
perigee height: 35765 km
apogee height: 35808 km
right ascension of ascending node: 321.8106°
argument of perigee: 321.6006°
revolutions per day: 1.00270000
mean anomaly at epoch: 38.3668°
orbit number at epoch: 0

The dashed part of the orbit path shows where the satellite is in the earth's shadow,  

DLR